Pickwick Lake Weather Center

Moon Phase Calendar



Pickwick Lake Water Level
Online Cameras

 


      

Current Conditions in Cherokee
5/21/2022 8:19:56 PM

77°F
Feels Like 79
Clear
Humidity
84%
Pressure
29.94"
Wind
4.2 mph (SE)
Dew Point
72°F
UV Index
0/10 (Low)
Visibility
6 mi

Hourly Forecast

Date & Time Sat, May 21
8:00 PM
Sat, May 21
9:00 PM
Sat, May 21
10:00 PM
Sat, May 21
11:00 PM
Sun, May 22
12:00 AM
Sun, May 22
1:00 AM
Sun, May 22
2:00 AM
Sun, May 22
3:00 AM
Sun, May 22
4:00 AM
Sun, May 22
5:00 AM
Sun, May 22
6:00 AM
Sun, May 22
7:00 AM
Sun, May 22
8:00 AM
Sun, May 22
9:00 AM
Sun, May 22
10:00 AM
Sun, May 22
11:00 AM
Sun, May 22
12:00 PM
Sun, May 22
1:00 PM
Sun, May 22
2:00 PM
Sun, May 22
3:00 PM
Sun, May 22
4:00 PM
Sun, May 22
5:00 PM
Sun, May 22
6:00 PM
Sun, May 22
7:00 PM
Sun, May 22
8:00 PM
Sun, May 22
9:00 PM
Sun, May 22
10:00 PM
Sun, May 22
11:00 PM
Mon, May 23
12:00 AM
Mon, May 23
1:00 AM
Mon, May 23
2:00 AM
Mon, May 23
3:00 AM
Mon, May 23
4:00 AM
Mon, May 23
5:00 AM
Mon, May 23
6:00 AM
Mon, May 23
7:00 AM
Mon, May 23
8:00 AM
Mon, May 23
9:00 AM
Mon, May 23
10:00 AM
Mon, May 23
11:00 AM
Mon, May 23
12:00 PM
Mon, May 23
1:00 PM
Mon, May 23
2:00 PM
Mon, May 23
3:00 PM
Mon, May 23
4:00 PM
Mon, May 23
5:00 PM
Mon, May 23
6:00 PM
Mon, May 23
7:00 PM
Condition
Clear

Clear

Clouds

Rain

Rain

Rain

Rain

Rain

Clouds

Clouds

Clouds

Clouds

Clouds

Clouds

Clouds

Clouds

Clouds

Rain

Rain

Rain

Rain

Rain

Rain

Rain

Rain

Rain

Rain

Rain

Clouds

Clouds

Clouds

Clouds

Clouds

Clouds

Clouds

Clouds

Clouds

Clouds

Clouds

Clouds

Clouds

Clouds

Clouds

Clouds

Clouds

Clouds

Clouds

Clouds
Temperature 77°F77°F75°F73°F71°F68°F67°F67°F67°F67°F67°F68°F69°F70°F74°F78°F80°F78°F73°F72°F70°F70°F67°F66°F64°F63°F62°F61°F61°F61°F60°F60°F60°F60°F60°F60°F61°F62°F64°F67°F68°F69°F70°F70°F71°F70°F70°F69°F
Feels Like 79°F78°F76°F74°F72°F69°F68°F68°F68°F68°F68°F69°F70°F71°F75°F79°F82°F79°F74°F73°F71°F71°F68°F67°F65°F64°F63°F62°F62°F61°F61°F61°F61°F61°F60°F61°F61°F63°F64°F67°F69°F70°F70°F71°F71°F71°F71°F70°F
Cloudiness 4%6%20%36%54%72%100%100%100%100%100%100%100%100%94%93%93%94%100%100%100%100%100%100%100%100%100%100%100%100%100%100%100%100%100%100%100%100%100%100%100%100%100%100%100%100%100%100%
Visibility 6 mi6 mi6 mi6 mi6 mi6 mi6 mi6 mi6 mi6 mi6 mi6 mi6 mi6 mi6 mi6 mi6 mi6 mi5 mi6 mi6 mi6 mi4 mi5 mi6 mi6 mi6 mi6 mi6 mi6 mi6 mi6 mi6 mi6 mi6 mi6 mi6 mi6 mi6 mi6 mi6 mi6 mi6 mi6 mi6 mi6 mi6 mi6 mi
Precipitation 0%14%48%65%79%89%100%100%80%80%80%80%20%25%25%37%57%79%90%97%93%93%93%93%90%83%83%78%78%78%18%10%10%10%10%10%9%6%8%8%8%9%4%4%3%3%3%5%
Humidity 84%81%80%82%90%97%99%99%98%98%98%97%95%91%79%68%63%74%89%92%94%93%97%98%98%98%98%98%98%98%98%98%97%97%97%97%95%93%90%85%83%83%83%81%81%82%82%84%
Dew Point 72°F71°F69°F67°F68°F66°F66°F66°F66°F66°F66°F67°F67°F67°F67°F66°F66°F69°F69°F69°F68°F68°F66°F65°F63°F62°F61°F60°F60°F59°F59°F59°F59°F59°F59°F59°F59°F60°F61°F62°F63°F63°F63°F64°F64°F64°F64°F64°F
Pressure 29.94"29.94"29.97"30"30.03"30.09"30.12"30.09"30.09"30.09"30.15"30.18"30.18"30.18"30.18"30.18"30.15"30.15"30.15"30.12"30.12"30.12"30.15"30.15"30.15"30.15"30.18"30.18"30.18"30.15"30.15"30.15"30.12"30.12"30.12"30.15"30.15"30.15"30.15"30.12"30.12"30.12"30.09"30.06"30.06"30.03"30.03"30.03"
Wind Speed 4.2 mph4.7 mph4.3 mph4.1 mph4 mph3.4 mph4.6 mph2 mph4 mph2.8 mph2.5 mph2.8 mph2.4 mph3 mph3.4 mph4.9 mph5.2 mph5.1 mph5 mph5.9 mph7.2 mph10.4 mph9.5 mph8.5 mph9.6 mph9.5 mph8.4 mph7.7 mph7.5 mph7.3 mph6.8 mph6.6 mph6.5 mph6.1 mph6.3 mph6.2 mph6.6 mph6.8 mph6.7 mph6.1 mph5.3 mph4.8 mph4.9 mph5.5 mph6.1 mph6.8 mph6.5 mph6.2 mph
Wind
Direction
142°
SE
154°
SSE
161°
SSE
204°
SSW
260°
W
297°
WNW
284°
WNW
315°
NW
70°
ENE
136°
SE
287°
WNW
315°
NW
314°
NW
317°
NW
323°
NW
347°
NNW
354°
N
347°
NNW
344°
NNW
351°
N
350°
N
356°
N

N
12°
NNE
26°
NNE
28°
NNE
31°
NNE
27°
NNE
28°
NNE
30°
NNE
31°
NNE
32°
NNE
25°
NNE
21°
NNE
21°
NNE
33°
NNE
46°
NE
45°
NE
53°
NE
61°
ENE
69°
ENE
59°
ENE
59°
ENE
57°
ENE
54°
NE
62°
ENE
67°
ENE
70°
ENE

Daily Forecast

Date High Low Precip. Humidity
Today
May 21

Rain
90 °F
68 °F
65%
50%
Sunday
May 22

Rain
80 °F
61 °F
100%
63%
Monday
May 23

Clouds
71 °F
60 °F
78%
83%
Tuesday
May 24

Rain
73 °F
62 °F
100%
87%
Wednesday
May 25

Rain
79 °F
64 °F
100%
82%
Thursday
May 26

Rain
76 °F
57 °F
100%
92%
Friday
May 27

Clear
78 °F
52 °F
0%
46%
Saturday
May 28

Clear
86 °F
58 °F
0%
43%
Sunday
May 29

Clouds
87 °F
64 °F
0%
45%
Monday
May 30

Rain
80 °F
66 °F
84%
81%
Tuesday
May 31

Rain
69 °F
53 °F
59%
45%
Wednesday
Jun 1

Clear
68 °F
44 °F
0%
48%
Thursday
Jun 2

Clouds
67 °F
51 °F
0%
50%
Friday
Jun 3

Rain
64 °F
58 °F
100%
83%
Saturday
Jun 4

Rain
72 °F
57 °F
100%
78%
Sunday
Jun 5

Clear
79 °F
52 °F
0%
46%

Temperature 8-14 Day Outlook



Precipitation 8-14 Day Outlook




Quick Links
Pickwick Lake News
Pickwick Lake Photos
Pickwick Lake Videos




About Us
Contact Us
Site Map
Search Site
Advertise With Us
   
www.PickwickLake.info
THE PICKWICK LAKE WEBSITE

Copyright 2022, Lakes Online
Privacy    |    Legal